Flag for Greece Weather past 2 weeks in Nea Smyrni, Greece

Now
50 °F

Passing clouds.


Feels Like: 46 °F
Forecast: 40 / 58 °F
Wind: 10 mph from North

Location: Eleftherios Venizelos International Airport

Current Time: Dec 22, 2014 at 3:01:23 AM

Latest Report: Dec 22, 2014 at 2:20 AM


Visibility: N/A

Pressure: 30.30 "Hg

Humidity: 47%

Dew point: 30 °F

Location of Nea SmyrniLocation

Historic Weather in Nea Smyrni — Graph

°F

Nea Smyrni temperature yesterday

Maximum temperature yesterday: 64 °F (at 12:20 PM)
Minimum temperature yesterday: 41 °F (at 1:20 AM)
Average temperature yesterday: 52 °F

Past Weeks' High & Low Weather Summary

 TemperatureHumidityPressure
High66 °F (Dec 7, 1:20 PM)100% (Dec 21, 1:50 AM)30.33 "Hg (Dec 21, 1:50 AM)
Low37 °F (Dec 14, 3:50 AM)33% (Dec 22, 12:20 AM)29.59 "Hg (Dec 9, 12:20 AM)
Average53 °F78%30.04 "Hg
* Reported Dec 7 1:20 AM — Dec 22 1:50 AM, Nea Smyrni, Weather by CustomWeather, © 2014

Note: Actual official high and low records may vary slightly from our data, if they occured in-between our weather recording intervals... More about our weather records

Advertising

Nea Smyrni weather history for previous 24 hours

 ConditionsComfort  
Time TempWeatherWind HumidityBarometerVisibility
1:50 AM
Dec 22
52 °FPassing clouds.6 mph41%30.30 "HgN/A
1:20 AM52 °FPassing clouds.10 mph41%30.30 "HgN/A
12:50 AM54 °FPassing clouds.14 mph33%30.27 "HgN/A
12:20 AM54 °FPassing clouds.8 mph33%30.30 "HgN/A
11:50 PM
Dec 21
52 °FPassing clouds.13 mph41%30.30 "HgN/A
11:20 PM52 °FPassing clouds.17 mph44%30.27 "HgN/A
10:50 PM54 °FPassing clouds.17 mph35%30.27 "HgN/A
10:20 PM54 °FPassing clouds.23 mph44%30.24 "HgN/A
9:50 PM52 °FPassing clouds.16 mph50%30.24 "HgN/A
9:20 PM52 °FPassing clouds.15 mph50%30.24 "HgN/A
8:50 PM54 °FPassing clouds.14 mph41%30.24 "HgN/A
8:20 PM54 °FPassing clouds.2 mph44%30.21 "HgN/A
7:50 PM55 °FPassing clouds.9 mph41%30.21 "HgN/A
7:20 PM55 °FPassing clouds.2 mph38%30.18 "HgN/A
6:50 PM55 °FPassing clouds.9 mph44%30.15 "HgN/A
6:20 PM55 °FPassing clouds.3 mph44%30.15 "HgN/A
5:50 PM55 °FPassing clouds.3 mph47%30.12 "HgN/A
5:20 PM55 °FPassing clouds.14 mph59%30.12 "HgN/A
4:50 PM55 °FScattered clouds.21 mph63%30.12 "HgN/A
3:50 PM61 °FScattered clouds.6 mph63%30.09 "HgN/A
3:20 PM61 °FScattered clouds.7 mph68%30.07 "HgN/A
2:50 PM64 °FPassing clouds.6 mph60%30.07 "HgN/A
2:20 PM64 °FPassing clouds.5 mph52%30.07 "HgN/A
1:50 PM64 °FPassing clouds.6 mph52%30.07 "HgN/A
1:20 PM64 °FPassing clouds.8 mph52%30.07 "HgN/A
12:50 PM63 °FPassing clouds.2 mph52%30.07 "HgN/A
12:20 PM64 °FPassing clouds.3 mph52%30.07 "HgN/A
11:50 AM63 °FPassing clouds.7 mph56%30.07 "HgN/A
11:20 AM63 °FPassing clouds.5 mph59%30.04 "HgN/A
10:50 AM61 °FPassing clouds.7 mph63%30.07 "HgN/A
10:20 AM59 °FPassing clouds.2 mph68%30.09 "HgN/A
9:50 AM57 °FPassing clouds.2 mph72%30.09 "HgN/A
9:20 AM55 °FPassing clouds.6 mph82%30.09 "HgN/A
8:50 AM50 °FPassing clouds.2 mph82%30.09 "HgN/A
8:20 AM46 °FPassing clouds.1 mph87%30.09 "HgN/A
7:50 AM45 °FPassing clouds.No wind87%30.09 "HgN/A
7:20 AM45 °FPassing clouds.2 mph81%30.07 "HgN/A
6:50 AM45 °FPassing clouds.1 mph81%30.09 "HgN/A
6:20 AM41 °FPassing clouds.1 mph93%30.07 "HgN/A
5:50 AM43 °FPassing clouds.2 mph93%30.09 "HgN/A
5:20 AM41 °FPassing clouds.1 mph93%30.09 "HgN/A
4:20 AM41 °FPassing clouds.2 mph93%30.09 "HgN/A
3:50 AM41 °FPassing clouds.1 mph93%30.09 "HgN/A
3:20 AM41 °FPassing clouds.5 mph93%30.12 "HgN/A
Weather by CustomWeather, © 2014

See weather overviewHow to use our weather pages